EN

Hourly Weather Ambite

Today, 18 January, Monday

Time Temperature Precipitation Wind Pressure Humidity
00:00 +1°C° 0 mm 1 mps 700 mmHg 75%
01:00 0°C° 0 mm 1 mps 699 mmHg 76%
02:00 0°C° 0 mm 1 mps 699 mmHg 77%
03:00 0°C° 0 mm 1 mps 699 mmHg 78%
04:00 0°C° 0 mm 1 mps 699 mmHg 78%
05:00 0°C° 0 mm 1 mps 698 mmHg 79%
06:00 0°C° 0 mm 1 mps 699 mmHg 80%
07:00 +1°C° 0 mm 1 mps 699 mmHg 80%
08:00 +1°C° 0 mm 1 mps 699 mmHg 81%
09:00 +2°C° 0 mm 1 mps 699 mmHg 82%
10:00 +2°C° 0 mm 1 mps 699 mmHg 87%
11:00 +2°C° 0 mm 0 mps 699 mmHg 93%
12:00 +3°C° 0 mm 0 mps 699 mmHg 99%
13:00 +3°C° 0 mm 0 mps 698 mmHg 99%
14:00 +3°C° 0 mm 0 mps 698 mmHg 99%
15:00 +3°C° 0 mm 0 mps 697 mmHg 99%
16:00 +2°C° 0 mm 0 mps 697 mmHg 94%
17:00 +2°C° 0 mm 0 mps 697 mmHg 90%
18:00 +1°C° 0 mm 0 mps 697 mmHg 85%
19:00 0°C° 0 mm 0 mps 698 mmHg 84%
20:00 +1°C° 0 mm 1 mps 698 mmHg 83%
21:00 +1°C° 0 mm 1 mps 698 mmHg 82%
22:00 +1°C° 0 mm 1 mps 698 mmHg 82%
23:00 +1°C° 0 mm 1 mps 698 mmHg 82%

Tomorrow, 19 January, Tuesday

Time Temperature Precipitation Wind Pressure Humidity
00:00 +1°C° 0 mm 1 mps 698 mmHg 82%
01:00 +1°C° 0 mm 1 mps 698 mmHg 82%
02:00 0°C° 0 mm 1 mps 697 mmHg 82%
03:00 0°C° 0 mm 1 mps 697 mmHg 82%
04:00 0°C° 0 mm 1 mps 697 mmHg 82%
05:00 0°C° 0 mm 1 mps 697 mmHg 82%
06:00 0°C° 0 mm 1 mps 697 mmHg 82%
07:00 0°C° 0 mm 1 mps 697 mmHg 82%
08:00 +1°C° 0 mm 1 mps 697 mmHg 82%
09:00 +2°C° 0 mm 1 mps 697 mmHg 82%
10:00 +2°C° 0 mm 1 mps 696 mmHg 84%
11:00 +3°C° 0 mm 1 mps 696 mmHg 87%
12:00 +4°C° 0 mm 1 mps 696 mmHg 89%
13:00 +4°C° 0 mm 1 mps 695 mmHg 90%
14:00 +4°C° 0 mm 1 mps 695 mmHg 91%
15:00 +5°C° 0 mm 1 mps 694 mmHg 92%
16:00 +4°C° 0 mm 1 mps 694 mmHg 91%
17:00 +3°C° 0 mm 1 mps 694 mmHg 89%
18:00 +2°C° 0 mm 1 mps 694 mmHg 88%
19:00 +2°C° 0 mm 1 mps 694 mmHg 87%
20:00 +2°C° 0 mm 1 mps 694 mmHg 86%
21:00 +2°C° 0 mm 1 mps 693 mmHg 85%
22:00 +2°C° 0 mm 1 mps 693 mmHg 85%
23:00 +1°C° 0 mm 1 mps 693 mmHg 85%

Day after tomorrow, 20 January, Wednesday

Time Temperature Precipitation Wind Pressure Humidity
00:00 -1°C° 0 mm 2 mps 692 mmHg 85%
01:00 -1°C° 0 mm 2 mps 692 mmHg 87%
02:00 +1°C° 0 mm 2 mps 691 mmHg 89%
03:00 0°C° 0 mm 3 mps 691 mmHg 91%
04:00 0°C° 0 mm 3 mps 690 mmHg 93%
05:00 +1°C° 0 mm 3 mps 690 mmHg 94%
06:00 +1°C° 0 mm 3 mps 689 mmHg 95%
07:00 0°C° 0.3 mm 4 mps 689 mmHg 96%
08:00 0°C° 0.3 mm 4 mps 689 mmHg 97%
09:00 +1°C° 0.3 mm 5 mps 688 mmHg 97%
10:00 +1°C° 0.6 mm 5 mps 688 mmHg 97%
11:00 +1°C° 0.6 mm 6 mps 687 mmHg 97%
12:00 +2°C° 0.6 mm 7 mps 686 mmHg 97%
13:00 +2°C° 0.4 mm 6 mps 686 mmHg 96%
14:00 +3°C° 0.4 mm 6 mps 685 mmHg 96%
15:00 +3°C° 0.4 mm 6 mps 684 mmHg 95%
16:00 +3°C° 0.1 mm 5 mps 685 mmHg 94%
17:00 +3°C° 0.1 mm 4 mps 685 mmHg 94%
18:00 +3°C° 0.1 mm 4 mps 685 mmHg 94%
19:00 +3°C° 0.2 mm 4 mps 685 mmHg 94%
20:00 +2°C° 0.2 mm 5 mps 686 mmHg 95%
21:00 +2°C° 0.2 mm 6 mps 686 mmHg 95%
22:00 +2°C° 0 mm 5 mps 687 mmHg 95%
23:00 +2°C° 0 mm 5 mps 687 mmHg 95%

21 January, Thursday

Time Temperature Precipitation Wind Pressure Humidity
00:00 +2°C° 0 mm 5 mps 687 mmHg 95%
01:00 +2°C° 0 mm 5 mps 687 mmHg 96%
02:00 +2°C° 0 mm 5 mps 688 mmHg 96%
03:00 +2°C° 0 mm 5 mps 688 mmHg 97%
04:00 +3°C° 0 mm 5 mps 688 mmHg 96%
05:00 +3°C° 0 mm 6 mps 688 mmHg 96%
06:00 +3°C° 0 mm 6 mps 688 mmHg 96%
07:00 +3°C° 0 mm 6 mps 689 mmHg 96%
08:00 +3°C° 0 mm 6 mps 689 mmHg 95%
09:00 +4°C° 0 mm 7 mps 689 mmHg 95%
10:00 +5°C° 0 mm 8 mps 689 mmHg 90%
11:00 +6°C° 0 mm 9 mps 689 mmHg 86%
12:00 +7°C° 0 mm 10 mps 689 mmHg 81%
13:00 +6°C° 0.3 mm 9 mps 688 mmHg 85%
14:00 +6°C° 0.3 mm 9 mps 687 mmHg 89%
15:00 +5°C° 0.3 mm 9 mps 686 mmHg 92%
16:00 +6°C° 0.5 mm 9 mps 686 mmHg 92%
17:00 +6°C° 0.5 mm 9 mps 687 mmHg 92%
18:00 +6°C° 0.5 mm 10 mps 687 mmHg 92%
19:00 +6°C° 0 mm 9 mps 687 mmHg 92%
20:00 +5°C° 0 mm 8 mps 688 mmHg 91%
21:00 +4°C° 0 mm 7 mps 688 mmHg 90%
22:00 +4°C° 0 mm 7 mps 688 mmHg 90%
23:00 +3°C° 0 mm 6 mps 689 mmHg 89%

22 January, Friday

Time Temperature Precipitation Wind Pressure Humidity
00:00 +3°C° 0 mm 6 mps 689 mmHg 89%
01:00 +3°C° 0 mm 6 mps 689 mmHg 91%
02:00 +3°C° 0 mm 6 mps 689 mmHg 93%
03:00 +2°C° 0 mm 6 mps 689 mmHg 95%
04:00 +3°C° 0 mm 6 mps 689 mmHg 94%
05:00 +3°C° 0 mm 7 mps 688 mmHg 93%
06:00 +3°C° 0 mm 7 mps 688 mmHg 91%
07:00 +3°C° 0.1 mm 7 mps 688 mmHg 92%
08:00 +3°C° 0.1 mm 7 mps 688 mmHg 92%
09:00 +3°C° 0.1 mm 7 mps 687 mmHg 92%
10:00 +4°C° 1.6 mm 7 mps 688 mmHg 84%
11:00 +4°C° 1.6 mm 7 mps 688 mmHg 77%
12:00 +5°C° 1.6 mm 7 mps 688 mmHg 69%
13:00 +5°C° 0 mm 8 mps 688 mmHg 67%
14:00 +5°C° 0 mm 8 mps 689 mmHg 64%
15:00 +6°C° 0 mm 8 mps 689 mmHg 62%
16:00 +5°C° 0 mm 7 mps 690 mmHg 66%
17:00 +4°C° 0 mm 7 mps 690 mmHg 69%
18:00 +3°C° 0 mm 6 mps 691 mmHg 73%
19:00 +3°C° 0 mm 6 mps 692 mmHg 75%
20:00 +2°C° 0 mm 6 mps 692 mmHg 77%
21:00 +2°C° 0 mm 6 mps 692 mmHg 79%
22:00 +1°C° 0 mm 5 mps 693 mmHg 82%
23:00 +1°C° 0 mm 5 mps 693 mmHg 84%

23 January, Saturday

Time Temperature Precipitation Wind Pressure Humidity
00:00 0°C° 0 mm 4 mps 693 mmHg 86%
01:00 0°C° 0 mm 4 mps 693 mmHg 89%
02:00 -1°C° 0 mm 4 mps 693 mmHg 92%
03:00 -1°C° 0 mm 5 mps 693 mmHg 94%
04:00 -1°C° 0 mm 5 mps 693 mmHg 94%
05:00 -2°C° 0 mm 6 mps 693 mmHg 94%
06:00 -2°C° 0 mm 6 mps 693 mmHg 94%
07:00 -1°C° 0 mm 6 mps 693 mmHg 93%
08:00 -1°C° 0 mm 6 mps 694 mmHg 92%
09:00 -1°C° 0 mm 7 mps 694 mmHg 90%
10:00 0°C° 0 mm 7 mps 694 mmHg 87%
11:00 +2°C° 0 mm 7 mps 694 mmHg 84%
12:00 +2°C° 0 mm 8 mps 694 mmHg 80%
13:00 +4°C° 0 mm 8 mps 693 mmHg 79%
14:00 +4°C° 0 mm 8 mps 692 mmHg 78%
15:00 +5°C° 0 mm 9 mps 692 mmHg 78%
16:00 +5°C° 0 mm 8 mps 692 mmHg 80%
17:00 +4°C° 0 mm 7 mps 692 mmHg 83%
18:00 +4°C° 0 mm 6 mps 692 mmHg 86%
19:00 +4°C° 0.1 mm 7 mps 692 mmHg 87%
20:00 +4°C° 0.1 mm 7 mps 691 mmHg 89%
21:00 +4°C° 0.1 mm 7 mps 691 mmHg 91%
22:00 +4°C° 0 mm 7 mps 691 mmHg 92%
23:00 +5°C° 0 mm 7 mps 691 mmHg 93%
Show more